| time (UTC) | temp C | wind direction | speed KPH | gust KPH | rain 1hr cm | rain 24hr cm | rain mn cm | humidity % | barometer mb |
| 20260505023049 | 12 | 0 | 0.0 | 0.0 | 0.00 | 0.00 | 0.00 | 70 | 1015.9 |
| 20260505021549 | 12 | 0 | 0.0 | 0.0 | 0.00 | 0.00 | 0.00 | 68 | 1015.8 |
| 20260505020043 | 12 | 0 | 0.0 | 0.0 | 0.00 | 0.00 | 0.00 | 66 | 1015.7 |
| 20260505014543 | 13 | 0 | 0.0 | 0.0 | 0.00 | 0.00 | 0.00 | 64 | 1015.6 |
| 20260505013041 | 13 | 0 | 0.0 | 0.0 | 0.00 | 0.00 | 0.00 | 61 | 1015.5 |
| 20260505011600 | 15 | 0 | 0.0 | 0.0 | 0.00 | 0.00 | 0.00 | 60 | 1015.4 |
| 20260505010049 | 15 | 0 | 0.0 | 0.0 | 0.00 | 0.00 | 0.00 | 57 | 1015.2 |
| 20260505004545 | 16 | 0 | 0.0 | 0.0 | 0.00 | 0.00 | 0.00 | 54 | 1014.9 |
| 20260505003044 | 17 | 0 | 0.0 | 0.0 | 0.00 | 0.00 | 0.00 | 53 | 1014.7 |
| 20260505001540 | 18 | 0 | 0.0 | 1.6 | 0.00 | 0.00 | 0.00 | 49 | 1014.6 |
| 20260505000050 | 19 | 327 | 0.0 | 1.6 | 0.00 | 0.00 | 0.00 | 44 | 1014.4 |
| 20260504234544 | 20 | 218 | 0.0 | 3.2 | 0.00 | 0.00 | 0.00 | 43 | 1014.3 |
| 20260504233057 | 20 | 229 | 0.0 | 6.4 | 0.00 | 0.00 | 0.00 | 41 | 1014.2 |
| 20260504231542 | 21 | 232 | 0.0 | 9.7 | 0.00 | 0.00 | 0.00 | 41 | 1014.1 |
| 20260504230040 | 21 | 288 | 0.0 | 6.4 | 0.00 | 0.00 | 0.00 | 39 | 1014.0 |
| 20260504224542 | 22 | 235 | 0.0 | 8.0 | 0.00 | 0.00 | 0.00 | 37 | 1014.0 |
| 20260504223047 | 22 | 0 | 1.6 | 8.0 | 0.00 | 0.00 | 0.00 | 36 | 1014.0 |
| 20260504221544 | 22 | 198 | 1.6 | 12.9 | 0.00 | 0.00 | 0.00 | 37 | 1013.9 |
| 20260504220042 | 22 | 160 | 1.6 | 9.7 | 0.00 | 0.00 | 0.00 | 36 | 1013.8 |
| 20260504214540 | 22 | 230 | 1.6 | 9.7 | 0.00 | 0.00 | 0.00 | 36 | 1013.7 |
| 20260504213040 | 23 | 207 | 1.6 | 9.7 | 0.00 | 0.00 | 0.00 | 36 | 1013.8 |
| 20260504211539 | 23 | 212 | 1.6 | 14.5 | 0.00 | 0.00 | 0.00 | 35 | 1013.7 |
| 20260504210050 | 23 | 260 | 1.6 | 9.7 | 0.00 | 0.00 | 0.00 | 35 | 1013.7 |
| 20260504204541 | 23 | 200 | 0.0 | 9.7 | 0.00 | 0.00 | 0.00 | 35 | 1013.9 |
| 20260504203048 | 23 | 0 | 1.6 | 8.0 | 0.00 | 0.00 | 0.00 | 35 | 1013.9 |
| 20260504201541 | 23 | 213 | 4.8 | 9.7 | 0.00 | 0.00 | 0.00 | 34 | 1014.1 |
| 20260504200039 | 23 | 216 | 3.2 | 12.9 | 0.00 | 0.00 | 0.00 | 37 | 1014.2 |
| 20260504194548 | 23 | 225 | 1.6 | 9.7 | 0.00 | 0.00 | 0.00 | 37 | 1014.4 |
| 20260504193046 | 23 | 214 | 1.6 | 8.0 | 0.00 | 0.00 | 0.00 | 37 | 1014.5 |
| 20260504191559 | 23 | 131 | 3.2 | 8.0 | 0.00 | 0.00 | 0.00 | 35 | 1014.8 |
| 20260504190043 | 23 | 0 | 3.2 | 9.7 | 0.00 | 0.00 | 0.00 | 35 | 1014.9 |
| 20260504184613 | 23 | 219 | 3.2 | 12.9 | 0.00 | 0.00 | 0.00 | 35 | 1015.1 |
| 20260504183044 | 24 | 205 | 4.8 | 11.3 | 0.00 | 0.00 | 0.00 | 34 | 1015.1 |
| 20260504181551 | 24 | 0 | 3.2 | 6.4 | 0.00 | 0.00 | 0.00 | 36 | 1015.4 |
| 20260504180043 | 24 | 143 | 1.6 | 8.0 | 0.00 | 0.00 | 0.00 | 36 | 1015.5 |
| 20260504174545 | 23 | 221 | 1.6 | 4.8 | 0.00 | 0.00 | 0.00 | 35 | 1015.8 |
| 20260504173045 | 23 | 155 | 3.2 | 8.0 | 0.00 | 0.00 | 0.00 | 35 | 1015.8 |
| 20260504171550 | 24 | 160 | 1.6 | 4.8 | 0.00 | 0.00 | 0.00 | 37 | 1015.8 |
| 20260504081551 | 2 | 0 | 0.0 | 0.0 | 0.00 | 0.00 | 0.00 | 90 | 1017.5 |
| 20260504044539 | 4 | 0 | 0.0 | 0.0 | 0.00 | 0.00 | 0.00 | 80 | 1017.8 |
| 20260504043047 | 5 | 0 | 0.0 | 0.0 | 0.00 | 0.00 | 0.00 | 78 | 1017.7 |
| 20260504041544 | 5 | 0 | 0.0 | 0.0 | 0.00 | 0.00 | 0.00 | 79 | 1017.8 |
| 20260504040057 | 5 | 0 | 0.0 | 0.0 | 0.00 | 0.00 | 0.00 | 76 | 1017.8 |
| 20260504034540 | 5 | 0 | 0.0 | 0.0 | 0.00 | 0.00 | 0.00 | 75 | 1017.6 |
| 20260504033041 | 5 | 0 | 0.0 | 0.0 | 0.00 | 0.00 | 0.00 | 74 | 1017.5 |
| 20260504031541 | 6 | 0 | 0.0 | 1.6 | 0.00 | 0.00 | 0.00 | 73 | 1017.7 |
| 20260504030045 | 6 | 0 | 0.0 | 1.6 | 0.00 | 0.00 | 0.00 | 71 | 1017.7 |
| 20260504024540 | 6 | 0 | 0.0 | 1.6 | 0.00 | 0.00 | 0.00 | 69 | 1017.8 |